#timestamp,LO_Frequency,Hit,StdDev 
1457582415.6,286047002.2,N
1457582435.4,286047002.2,N
1457582455.3,286047007.3,Y
1457582475.1,286047007.2,P
1457582495.8,286047009.7,N
1457582515.7,286047011.3,N
1457582535.5,286047014.3,Y
1457582555.3,286047009.4,P
1457582575.2,286047012.5,P
1457582595.9,286047012.9,P
1457582615.7,286047014.5,Y
1457582635.6,286047007.0,P
1457582655.4,286047009.2,P
1457582675.2,286047010.4,P
1457582695.1,286047010.4,Y
1457582696.0,286047010.4,P
1457582715.8,286047001.4,N
1457582735.6,286047001.4,N
1457582755.5,286047001.7,N
1457582775.3,286047000.9,N
1457582795.1,286047003.4,N
1457582815.9,286047003.8,N
1457582835.7,286046999.8,N
1457582855.5,286047002.1,N
1457582875.4,286046997.0,N
1457582895.2,286046997.6,N
1457582915.0,286047000.6,N
1457582915.9,286047000.6,N
1457582935.7,286046998.5,N
1457582955.6,286047005.4,N
1457582975.4,286047004.6,N
1457582995.2,286047005.0,N
1457583015.1,286047004.7,N
1457583016.0,286047004.7,N
1457583035.8,286047006.1,N
1457583055.6,286047004.5,N
1457583075.5,286047004.6,N
1457583095.3,286047006.9,N
1457583115.1,286047005.7,N
1457583135.9,286047006.7,N
1457583155.7,286047004.8,N
1457583175.5,286047006.0,N
1457583195.3,286047006.0,N
1457583215.2,286047004.2,N
1457583235.0,286047004.2,N
1457583235.9,286047004.2,N
1457583255.7,286047005.2,N
1457583275.6,286047001.7,N
1457583295.4,286047002.0,N
1457583315.2,286047001.3,N
1457583335.1,286047002.3,N
1457583336.0,286047002.3,N
1457583355.8,286047000.3,N
1457583375.6,286047000.4,N
1457583395.5,286046998.1,N
1457583415.3,286046994.1,N
1457583435.1,286046996.3,N
1457583455.9,286046991.7,N
1457583475.7,286046987.5,Y
1457583495.5,286046985.6,P
1457583515.4,286046982.7,N
1457583535.2,286046983.2,N
1457583555.0,286046981.5,N
1457583555.9,286046981.5,N
1457583575.8,286046983.4,N
1457583595.6,286046981.2,N
1457583615.4,286046981.3,N
1457583635.3,286046978.9,Y
1457583655.1,286046997.9,P
1457583656.0,286046997.9,N
1457583675.8,286046999.6,N
1457583695.7,286046998.1,N
1457583715.5,286046997.1,N
1457583735.3,286046997.1,N
1457583755.1,286046996.7,N
1457583775.9,286046996.9,N
1457583795.7,286046996.7,N
1457583815.5,286046997.3,N
1457583835.4,286046998.1,N
1457583855.2,286046999.0,N
1457583875.0,286046999.4,N
1457583875.9,286046999.4,N
1457583895.8,286046996.7,N
1457583915.6,286046998.9,N
1457583935.4,286047001.2,N
1457583955.3,286046999.0,N
1457583975.1,286046998.6,N
1457583976.0,286046998.6,N
1457583995.8,286046999.4,N
1457584015.7,286046998.0,N
1457584035.5,286046993.3,N
1457584055.3,286046998.0,N
1457584075.2,286046994.0,N
1457584095.9,286046995.8,N
1457584115.7,286046994.8,N
1457584135.5,286046999.6,N
1457584155.4,286047001.1,N
1457584175.2,286046996.6,N
1457584195.0,286046997.8,N
1457584195.9,286046997.8,N
1457584215.8,286046999.3,N
1457584235.6,286046998.8,N
1457584255.4,286046998.2,N
1457584275.3,286047001.2,N
1457584295.1,286047002.6,N
1457584296.0,286047002.6,N
1457584315.8,286046998.9,N
1457584335.7,286046995.0,N
1457584355.5,286046995.8,N
1457584375.3,286046994.9,N
1457584395.2,286046999.1,N
1457584415.9,286046996.5,N
1457584435.7,286046999.1,N
1457584455.6,286046997.1,N
1457584475.4,286046996.7,N
1457584495.2,286046998.9,N
1457584515.0,286046999.3,N
1457584516.0,286046999.3,N
1457584535.8,286046997.0,N
1457584555.6,286046996.1,N
1457584575.4,286046994.6,N
1457584595.3,286046994.2,N
1457584615.1,286046994.6,N
1457584635.8,286046991.7,Y
1457584655.7,286046996.4,P
1457584675.5,286046995.3,P
1457584695.3,286046994.0,P
1457584715.2,286046993.0,Y
1457584735.0,286046996.6,P
1457584735.9,286046996.6,P
1457584755.7,286046997.5,P
1457584775.6,286046993.8,Y
1457584795.4,286046998.8,P
1457584815.2,286047002.4,N
1457584835.1,286047001.5,N
1457584836.0,286047001.5,N
1457584855.8,286047005.4,N
1457584875.6,286047005.9,N
1457584895.5,286047006.2,N
1457584915.3,286047006.1,N
1457584935.1,286047008.4,N
1457584955.9,286047013.5,Y
1457584975.7,286047011.8,P
1457584995.5,286047013.1,P
1457585015.4,286047017.3,P
1457585035.2,286047023.5,Y
1457585055.0,286047011.1,P
1457585055.9,286047011.1,P
1457585075.8,286047018.1,P
1457585095.6,286047016.6,Y
1457585115.4,286047002.0,P
1457585135.3,286047002.5,N
1457585155.1,286047000.0,N
1457585175.8,286046997.1,N
1457585195.7,286046995.8,N
1457585215.5,286046997.6,N
1457585235.3,286046996.5,N
1457585255.2,286046999.3,N
1457585275.9,286046998.0,N
1457585295.7,286046997.6,N
1457585315.6,286046995.0,N
1457585335.4,286046992.9,N
1457585355.2,286046990.0,N
1457585375.0,286046988.8,N
1457585376.0,286046988.8,N
1457585395.8,286046990.9,N
1457585415.6,286046988.2,N
1457585435.4,286046986.3,N
1457585455.3,286046982.0,N
1457585475.1,286046981.6,N
1457585495.8,286046981.6,N
1457585515.7,286046979.5,N
1457585535.5,286046977.7,N
1457585555.3,286046977.0,N
1457585575.2,286046975.6,N
1457585595.9,286046973.8,N
1457585615.7,286046970.3,Y
1457585635.6,286046977.4,P
1457585655.4,286046976.2,P
1457585675.2,286046977.0,P
1457585695.1,286046978.3,Y
1457585696.0,286046978.3,P
1457585715.8,286046992.1,P
1457585735.6,286046990.7,N
1457585755.5,286046992.4,N
1457585775.3,286046995.3,N
1457585795.1,286046997.1,N
1457585815.9,286046999.3,N
1457585835.7,286046995.9,N
1457585855.5,286046997.8,N
1457585875.3,286046997.3,N
1457585895.2,286046999.3,N
1457585915.0,286046995.3,N
1457585915.9,286046995.3,N
1457585935.7,286046997.6,N
1457585955.6,286046993.3,N
1457585975.4,286046996.4,N
1457585995.2,286046994.4,N
